Temp
80 79 79 78 78 78 79 77 77 77 77 77 77 78 78 80 80 80 80 80 79 80 80 78 77 77 80 78 77 77 77 77 77 78 77 77 77 78 78 78 77 77
80 80 80 79 78 78 78 78 79 79 78 76 77 78 78 78 79 80 80 80 80 80 79 79 78 77 77 77 77 75 74 75 76 78 76 75 76 77 78 78 78 79
80 79 79 79 79 78 78 79 79 78 78 78 79 78 80 80 80 80 80 80 80 81 80 79 78 77 77 76 75 75 76 73 74 76 75 75 75 75 76 78 78 78
80 81 81 82 80 79 80 80 79 79 79 79 79 81 81 83 82 81 80 81 80 80 81 80 80 80 78 78 76 74 75 74 75 73 73 74 75 76 76 76 77 78
82 82 82 81 80 80 80 81 82 82 81 82 82 82 81 80 81 82 82 81 79 81 80 79 79 79 78 76 74 74 74 74 74 73 73 73 74 74 76 76 75 76
83 82 81 79 79 79 80 82 83 83 83 83 83 84 82 82 81 81 81 81 81 81 81 80 79 78 78 77 74 74 75 75 75 72 73 72 74 75 78 77 75 75
83 82 81 80 80 79 80 83 84 85 84 85 84 83 83 82 81 80 81 81 80 80 79 77 76 76 77 75 73 73 72 73 73 73 73 74 73 74 75 76 74 73
82 81 81 79 80 81 81 82 83 83 83 83 83 82 82 82 80 80 77 76 77 77 77 76 74 73 74 73 73 73 74 74 74 72 71 72 71 71 72 74 74 73
80 79 78 78 79 78 79 79 80 79 81 78 72 76 78 80 81 79 76 74 75 75 74 74 74 74 73 73 72 72 72 73 75 75 73 73 72 72 72 73 73 73
79 79 80 78 76 72 73 76 75 77 77 77 75 76 78 76 77 77 75 73 74 74 73 73 73 72 72 71 72 72 73 73 74 74 74 74 73 73 74 73 72 72
78 77 76 75 73 71 73 74 74 77 76 78 78 78 78 77 77 75 74 73 76 75 74 72 73 73 73 73 74 73 73 74 73 73 73 73 73 73 75 74 73 73
73 73 74 74 72 72 73 75 76 77 78 78 78 77 77 77 76 75 77 76 75 76 76 75 74 74 74 74 74 74 74 73 73 73 73 73 73 73 73 73 73 73
72 72 72 72 73 75 76 75 75 76 76 76 77 76 75 74 74 74 76 76 76 76 76 76 75 74 73 73 73 73 72 72 72 72 72 73 73 73 73 74 74 74
71 72 73 75 75 75 75 75 75 75 75 75 75 75 75 75 76 76 77 76 76 75 75 75 74 74 74 73 73 73 72 72 72 73 72 72 72 73 73 74 74 74
72 73 75 75 76 75 75 74 75 75 75 75 74 75 76 77 76 75 75 75 74 74 74 74 74 74 74 74 73 73 72 72 73 73 73 72 73 73 73 73 74 74
73 75 76 75 75 74 74 74 74 74 74 74 74 74 73 74 73 73 73 73 73 73 73 73 73 74 76 77 76 76 74 73 73 72 72 72 72 72 73 73 73 73
74 74 74 74 73 73 72 73 73 73 72 71 71 71 71 71 72 71 71 72 72 72 72 73 74 75 77 73 73 74 76 74 73 72 72 72 71 71 71 72 73 73
73 73 72 72 71 71 71 71 71 70 70 70 70 71 72 72 71 71 71 71 72 71 71 72 73 75 71 71 72 72 74 75 74 73 73 72 71 71 71 72 72 72
72 71 71 71 70 71 71 71 70 70 70 70 70 71 70 69 69 69 69 70 70 70 70 71 72 73 70 70 70 70 70 73 72 72 71 71 71 71 71 71 72 72
70 70 70 70 70 70 69 69 69 68 68 68 69 69 68 68 68 69 69 69 69 69 69 70 70 73 70 69 69 69 69 71 70 70 71 71 71 71 71 70 70 70
69 69 69 68 68 68 67 67 67 67 67 68 68 68 68 68 68 67 68 69 69 69 68 70 71 71 68 68 68 67 67 70 69 70 70 70 70 70 70 71 70 71
68 67 66 66 66 66 66 66 67 66 67 67 69 67 68 67 67 67 67 67 68 68 68 68 70 68 67 66 65 65 67 70 69 68 68 68 69 70 70 70 70 70
67 67 66 66 65 65 65 65 66 66 66 68 67 66 66 66 66 67 68 67 68 68 68 68 69 68 66 64 64 64 66 68 68 67 67 67 68 69 70 70 70 70
67 66 65 66 65 65 65 65 65 65 65 67 66 65 65 66 66 66 67 67 67 67 68 67 68 69 65 63 62 63 66 67 67 66 66 67 67 68 69 69 70 72
65 65 65 64 64 64 65 65 65 65 66 66 65 65 65 65 67 66 66 66 66 67 70 70 68 69 64 63 62 61 64 66 65 64 64 64 65 66 67 67 68 70
64 65 65 64 63 64 64 64 65 65 64 64 64 64 64 64 65 65 64 65 66 67 67 67 67 67 68 63 61 60 61 64 64 63 63 63 64 65 65 65 66 67
MSLP
1008.45 1008.67 1008.87 1009.01 1009.05 1009.01 1009.05 1009.29 1009.39 1009.53 1009.55 1009.55 1009.69 1009.47 1009.35 1008.99 1008.83 1008.97 1008.99 1008.99 1009.07 1009.15 1009.15 1009.17 1009.19 1009.31 1009.31 1009.35 1009.41 1009.55 1009.67 1009.69 1009.67 1009.57 1009.65 1009.71 1009.87 1009.95 1010.13 1010.13 1010.11 1010.09
1008.33 1008.43 1008.57 1008.73 1008.89 1008.85 1008.87 1008.85 1009.01 1009.17 1009.23 1009.25 1009.21 1009.11 1008.91 1008.81 1008.67 1008.69 1008.77 1008.83 1008.79 1008.85 1008.77 1008.87 1008.95 1009.01 1009.07 1009.15 1009.15 1009.33 1009.39 1009.41 1009.51 1009.21 1009.49 1009.61 1009.61 1009.65 1009.77 1009.71 1009.73 1009.61
1008.11 1008.37 1008.53 1008.75 1008.79 1008.77 1008.73 1008.69 1008.79 1008.87 1008.99 1008.89 1008.83 1008.87 1008.77 1008.53 1008.57 1008.45 1008.47 1008.49 1008.59 1008.53 1008.51 1008.51 1008.61 1008.67 1008.71 1008.77 1008.85 1009.01 1009.13 1009.21 1009.31 1009.11 1009.29 1009.43 1009.37 1009.55 1009.51 1009.45 1009.49 1009.45
1007.91 1007.97 1008.15 1008.23 1008.27 1008.41 1008.39 1008.61 1008.69 1008.73 1008.75 1008.91 1008.87 1008.59 1008.51 1008.37 1008.33 1008.37 1008.33 1008.29 1008.39 1008.37 1008.27 1008.27 1008.33 1008.33 1008.41 1008.49 1008.67 1008.87 1008.85 1008.93 1008.89 1008.95 1009.17 1009.13 1009.13 1009.15 1009.19 1009.15 1009.19 1009.21
1007.59 1007.75 1007.79 1007.85 1007.93 1008.03 1008.21 1008.47 1008.51 1008.45 1008.53 1008.41 1008.31 1008.23 1008.27 1008.25 1008.25 1008.19 1008.15 1008.15 1008.17 1008.17 1008.09 1008.07 1008.07 1008.17 1008.25 1008.41 1008.49 1008.63 1008.67 1008.77 1008.67 1008.79 1009.01 1009.09 1008.93 1009.01 1008.95 1008.99 1009.09 1009.13
1007.13 1007.19 1007.35 1007.57 1007.69 1007.89 1008.15 1008.25 1008.17 1008.13 1008.13 1008.25 1008.13 1007.87 1007.87 1007.81 1007.89 1007.97 1007.99 1008.05 1007.97 1007.93 1007.91 1007.89 1007.99 1007.99 1008.07 1008.17 1008.21 1008.35 1008.43 1008.55 1008.43 1008.55 1008.79 1008.87 1008.73 1008.61 1008.63 1008.65 1008.79 1008.91
1006.95 1006.97 1007.13 1007.19 1007.49 1007.73 1008.05 1008.01 1007.89 1007.81 1007.83 1007.73 1007.65 1007.81 1007.63 1007.73 1007.77 1007.75 1007.71 1007.67 1007.61 1007.63 1007.69 1007.73 1007.77 1007.83 1007.77 1007.81 1008.01 1008.17 1008.19 1008.19 1008.19 1008.31 1008.51 1008.51 1008.49 1008.51 1008.43 1008.51 1008.57 1008.65
1006.57 1006.55 1006.71 1007.03 1007.41 1007.69 1008.01 1008.01 1007.95 1007.93 1007.91 1007.93 1008.13 1007.93 1007.69 1007.61 1007.55 1007.41 1007.33 1007.35 1007.43 1007.45 1007.45 1007.45 1007.51 1007.61 1007.65 1007.83 1008.01 1008.09 1008.09 1008.05 1008.13 1008.23 1008.37 1008.39 1008.41 1008.51 1008.39 1008.33 1008.31 1008.39
1006.35 1006.57 1006.69 1006.95 1007.31 1007.79 1008.19 1008.23 1008.21 1008.09 1007.83 1008.35 1009.61 1009.51 1008.51 1007.69 1007.35 1007.27 1007.23 1007.21 1007.25 1007.27 1007.33 1007.37 1007.41 1007.47 1007.45 1007.51 1007.63 1007.77 1007.89 1007.91 1007.85 1007.91 1008.05 1008.19 1008.27 1008.17 1008.07 1008.05 1008.21 1008.21
1006.55 1006.77 1006.99 1007.29 1008.03 1008.43 1008.05 1007.99 1008.69 1009.07 1008.67 1008.55 1008.39 1008.59 1008.25 1007.91 1007.89 1007.41 1007.19 1007.19 1007.23 1007.25 1007.27 1007.29 1007.31 1007.27 1007.23 1007.27 1007.37 1007.45 1007.61 1007.65 1007.65 1007.71 1007.75 1007.77 1007.75 1007.69 1007.71 1007.79 1007.85 1007.95
1007.09 1007.47 1007.91 1008.17 1008.09 1007.71 1007.61 1007.55 1007.61 1007.89 1008.29 1008.11 1007.75 1007.59 1007.25 1007.21 1007.27 1007.07 1007.13 1007.13 1007.17 1007.11 1007.07 1007.07 1007.03 1007.03 1007.13 1007.15 1007.19 1007.21 1007.29 1007.37 1007.39 1007.37 1007.33 1007.25 1007.19 1007.25 1007.29 1007.37 1007.45 1007.53
1006.67 1006.73 1007.31 1007.55 1007.53 1007.57 1007.33 1007.37 1007.59 1008.03 1007.81 1007.33 1007.25 1007.25 1007.09 1007.07 1007.17 1007.09 1007.03 1006.97 1006.85 1006.79 1006.75 1006.73 1006.67 1006.71 1006.83 1006.91 1006.91 1006.93 1006.95 1006.97 1006.95 1006.95 1006.91 1006.89 1006.89 1006.91 1006.91 1006.93 1007.03 1007.05
1006.73 1006.61 1006.21 1006.63 1007.11 1007.39 1007.31 1007.35 1007.63 1007.59 1007.33 1007.13 1006.97 1007.13 1007.21 1007.27 1007.21 1007.19 1006.97 1006.89 1006.73 1006.59 1006.55 1006.49 1006.49 1006.59 1006.69 1006.71 1006.69 1006.67 1006.73 1006.79 1006.81 1006.77 1006.75 1006.73 1006.67 1006.61 1006.57 1006.53 1006.55 1006.57
1008.21 1007.45 1007.07 1006.75 1006.59 1006.59 1006.61 1006.79 1007.05 1007.17 1007.21 1007.09 1006.95 1007.03 1007.03 1006.99 1006.93 1006.81 1006.59 1006.49 1006.45 1006.45 1006.41 1006.37 1006.45 1006.49 1006.45 1006.43 1006.41 1006.41 1006.47 1006.51 1006.51 1006.55 1006.55 1006.49 1006.39 1006.27 1006.21 1006.19 1006.13 1006.09
1009.29 1008.35 1007.47 1006.87 1006.61 1006.65 1006.85 1007.03 1007.03 1006.93 1006.85 1006.81 1006.81 1006.87 1006.87 1006.79 1006.65 1006.71 1006.73 1006.57 1006.41 1006.41 1006.39 1006.33 1006.39 1006.37 1006.27 1006.23 1006.21 1006.19 1006.11 1006.15 1006.15 1006.17 1006.15 1006.15 1006.05 1005.95 1005.85 1005.79 1005.75 1005.67
1008.05 1007.73 1007.41 1006.99 1006.87 1006.91 1006.97 1007.09 1007.07 1006.91 1006.75 1006.77 1006.81 1006.85 1006.87 1006.77 1006.73 1006.67 1006.71 1006.73 1006.71 1006.57 1006.49 1006.47 1006.41 1006.27 1006.13 1006.01 1006.05 1006.07 1005.95 1005.87 1005.81 1005.77 1005.75 1005.75 1005.79 1005.75 1005.63 1005.49 1005.41 1005.33
1007.85 1007.59 1007.31 1007.19 1007.09 1007.15 1007.15 1007.11 1006.99 1006.89 1006.95 1007.01 1007.03 1007.01 1006.97 1006.85 1006.79 1006.83 1006.75 1006.65 1006.61 1006.55 1006.49 1006.35 1006.21 1006.03 1005.85 1005.77 1005.69 1005.59 1005.51 1005.49 1005.51 1005.45 1005.37 1005.39 1005.43 1005.47 1005.47 1005.31 1005.11 1004.95
1007.53 1007.35 1007.31 1007.31 1007.37 1007.43 1007.33 1007.13 1007.01 1007.01 1007.07 1007.07 1007.01 1006.93 1006.79 1006.65 1006.71 1006.67 1006.57 1006.49 1006.41 1006.39 1006.39 1006.31 1006.15 1005.87 1005.73 1005.63 1005.49 1005.35 1005.25 1005.17 1005.09 1005.09 1005.03 1005.03 1005.03 1005.05 1004.99 1004.95 1004.87 1004.73
1007.61 1007.63 1007.63 1007.61 1007.53 1007.35 1007.19 1007.11 1007.17 1007.21 1007.21 1007.19 1007.17 1006.97 1006.85 1006.87 1006.79 1006.67 1006.59 1006.43 1006.39 1006.39 1006.31 1006.09 1005.93 1005.63 1005.53 1005.41 1005.27 1005.15 1005.01 1004.93 1004.85 1004.77 1004.79 1004.75 1004.69 1004.63 1004.59 1004.55 1004.47 1004.43
1007.73 1007.69 1007.67 1007.57 1007.45 1007.43 1007.49 1007.57 1007.59 1007.59 1007.45 1007.25 1007.11 1006.97 1006.95 1006.89 1006.77 1006.71 1006.55 1006.47 1006.35 1006.27 1006.17 1005.99 1005.83 1005.55 1005.37 1005.21 1005.05 1004.91 1004.77 1004.69 1004.61 1004.53 1004.43 1004.33 1004.25 1004.19 1004.15 1004.13 1004.09 1004.13
1007.53 1007.59 1007.75 1007.79 1007.77 1007.77 1007.77 1007.75 1007.71 1007.57 1007.41 1007.23 1007.09 1007.07 1007.03 1006.95 1006.83 1006.73 1006.53 1006.35 1006.23 1006.09 1006.03 1005.87 1005.57 1005.25 1005.11 1004.93 1004.79 1004.65 1004.51 1004.43 1004.35 1004.25 1004.13 1003.99 1003.85 1003.79 1003.73 1003.67 1003.61 1003.59
1007.83 1007.95 1007.99 1007.97 1007.91 1007.83 1007.77 1007.69 1007.57 1007.47 1007.37 1007.15 1007.01 1006.93 1006.81 1006.73 1006.65 1006.59 1006.51 1006.35 1006.11 1005.95 1005.85 1005.69 1005.31 1005.03 1004.87 1004.73 1004.57 1004.41 1004.21 1004.11 1004.01 1003.95 1003.85 1003.71 1003.55 1003.39 1003.29 1003.23 1003.17 1003.17
1007.93 1007.97 1007.95 1007.87 1007.77 1007.71 1007.65 1007.57 1007.47 1007.35 1007.21 1007.03 1007.13 1007.05 1007.01 1006.93 1006.77 1006.57 1006.31 1006.15 1005.95 1005.77 1005.65 1005.41 1005.13 1004.79 1004.61 1004.43 1004.29 1004.09 1004.01 1003.89 1003.73 1003.65 1003.57 1003.47 1003.29 1003.07 1002.95 1002.83 1002.79 1002.71
1007.67 1007.65 1007.69 1007.63 1007.63 1007.67 1007.61 1007.53 1007.41 1007.31 1007.27 1007.07 1007.17 1007.11 1007.01 1006.81 1006.57 1006.39 1006.15 1005.93 1005.77 1005.59 1005.35 1005.19 1004.87 1004.47 1004.25 1004.09 1003.97 1003.81 1003.71 1003.67 1003.53 1003.47 1003.35 1003.23 1003.01 1002.79 1002.61 1002.49 1002.35 1002.23
1007.57 1007.65 1007.75 1007.81 1007.83 1007.73 1007.61 1007.57 1007.45 1007.35 1007.11 1006.97 1006.91 1006.83 1006.75 1006.53 1006.33 1006.19 1005.95 1005.69 1005.45 1005.23 1004.93 1004.77 1004.55 1004.23 1003.95 1003.83 1003.71 1003.55 1003.47 1003.43 1003.37 1003.31 1003.25 1003.07 1002.93 1002.77 1002.51 1002.37 1002.19 1001.97
1007.81 1007.83 1007.83 1007.85 1007.83 1007.69 1007.55 1007.47 1007.29 1007.19 1007.09 1006.95 1006.79 1006.65 1006.53 1006.33 1006.15 1005.99 1005.83 1005.51 1005.11 1004.93 1004.75 1004.51 1004.39 1004.11 1003.83 1003.67 1003.51 1003.43 1003.35 1003.25 1003.15 1003.21 1003.13 1002.91 1002.73 1002.59 1002.45 1002.19 1001.99 1001.83
Wind_Speed
7 6 7 7 7 7 7 6 5 6 6 6 6 7 7 7 5 5 6 6 7 8 8 7 6 6 7 6 6 6 6 7 6 6 6 7 7 7 7 7 7 7
8 8 6 6 6 6 6 6 6 7 7 6 7 7 7 6 6 5 6 7 7 7 7 7 7 7 7 6 6 6 6 5 6 4 5 5 6 6 7 7 7 6
8 7 8 8 8 8 8 6 6 6 7 7 7 5 7 5 7 6 6 6 6 8 8 7 6 6 7 6 6 5 6 5 6 5 4 5 5 5 6 6 5 6
8 9 9 9 8 7 7 6 6 6 5 5 7 8 7 7 6 6 6 7 7 8 7 6 7 7 6 6 6 6 6 5 6 4 4 4 4 5 5 5 5 6
10 8 7 7 6 6 6 6 8 7 7 8 7 7 7 7 7 7 7 7 7 7 6 7 6 5 5 5 5 5 4 6 5 5 5 6 5 4 5 5 5 6
8 7 7 6 6 6 7 8 9 9 8 8 9 8 7 8 7 6 6 6 6 7 7 6 5 5 6 6 5 5 6 6 6 4 5 6 5 4 4 4 4 6
8 7 8 6 5 5 6 8 8 8 8 9 8 9 8 8 7 7 7 8 8 7 7 6 5 6 6 4 5 5 5 5 4 5 5 6 5 6 5 5 5 6
8 7 7 5 4 5 5 6 5 4 3 6 8 8 7 8 7 6 5 5 5 5 5 5 5 5 4 4 5 5 6 5 5 5 5 6 5 6 6 6 6 6
6 5 4 4 4 1 1 3 3 4 4 2 5 12 11 8 7 5 5 4 4 4 4 4 4 5 5 4 4 4 5 4 5 5 6 7 7 7 7 6 6 7
3 1 1 2 6 7 8 9 8 9 7 5 8 11 8 3 6 6 4 4 4 4 4 4 4 4 4 4 4 5 6 7 7 7 7 7 7 6 7 7 8 8
7 8 8 7 5 5 2 8 5 9 6 10 8 6 6 5 6 4 4 4 5 5 5 4 5 4 5 5 6 6 7 8 8 8 8 7 7 7 7 8 8 8
8 8 6 4 6 7 8 7 8 9 9 8 7 8 7 7 6 6 5 6 5 6 6 6 6 5 6 7 7 6 7 7 8 7 7 6 6 7 8 7 8 8
7 8 8 7 4 5 6 6 7 9 7 7 6 5 5 5 4 5 5 5 6 5 6 6 6 5 6 6 7 7 7 6 6 6 6 6 6 7 8 8 8 8
6 4 1 2 4 3 3 3 4 5 5 5 4 5 6 5 6 6 7 5 6 5 6 5 5 6 6 7 7 7 6 6 6 7 7 7 7 7 8 8 9 9
9 8 7 4 4 2 1 3 4 4 3 3 3 4 4 6 5 5 6 6 5 5 6 5 6 6 6 7 6 6 6 7 8 8 8 8 8 8 8 8 9 8
9 8 6 3 1 1 3 3 4 4 3 4 4 4 4 4 4 4 4 5 5 6 5 5 5 4 6 11 12 10 8 7 7 7 7 8 8 9 9 8 9 8
5 4 2 2 2 2 3 3 3 3 3 3 3 3 3 3 3 3 3 3 4 4 5 5 5 5 11 13 14 15 11 8 7 8 7 8 8 8 9 9 8 8
3 2 3 3 3 4 3 3 3 4 4 3 3 4 4 4 4 4 4 4 4 4 5 5 6 8 12 13 14 15 13 10 8 8 8 7 7 8 8 8 9 9
2 3 3 4 3 4 4 5 5 5 5 4 5 4 3 4 4 4 4 4 5 5 6 6 6 9 12 14 14 14 15 13 9 8 8 8 8 8 9 8 8 8
4 4 4 5 6 6 6 5 5 4 4 4 3 4 4 4 5 5 5 5 5 6 6 6 7 9 13 14 14 15 15 13 8 9 8 8 9 9 8 8 8 8
7 7 6 5 4 4 4 4 4 4 4 4 4 4 5 5 6 6 5 5 5 5 6 7 7 12 14 15 15 15 15 12 8 8 8 8 8 8 9 9 9 8
4 4 3 3 3 3 3 4 4 4 5 5 5 5 5 5 5 5 6 6 6 7 8 8 8 13 14 15 15 15 15 9 7 8 8 8 8 8 9 8 8 8
1 1 2 3 3 3 4 4 5 6 6 5 5 6 6 6 6 6 6 7 8 8 8 8 8 11 14 15 15 16 12 8 8 7 7 8 8 8 8 8 8 8
2 2 4 4 5 5 5 5 5 4 4 4 5 5 6 6 6 7 7 7 8 8 8 9 9 10 14 14 14 15 12 9 8 7 8 7 8 7 7 7 9 13
3 3 3 3 3 4 4 4 5 5 5 4 5 5 6 6 6 7 7 7 7 8 12 12 9 10 13 14 14 13 10 6 6 6 7 7 6 7 6 6 7 8
3 2 2 3 3 4 4 5 5 5 5 6 6 6 6 6 6 7 8 8 8 8 8 8 8 8 9 12 13 10 8 4 4 5 6 6 5 6 6 5 6 7
Wind_Direction
188 184 193 202 210 216 216 208 208 210 219 221 222 234 231 239 234 214 213 210 207 209 213 217 217 220 224 224 224 226 231 237 243 239 234 228 224 222 224 222 221 219
193 189 196 202 218 224 225 217 215 212 222 220 224 230 237 241 243 221 219 217 216 218 217 214 212 213 217 220 222 217 227 228 244 240 234 229 232 226 233 236 236 238
190 190 194 200 212 219 223 218 217 220 221 226 232 239 249 241 247 238 234 227 226 230 226 221 218 215 215 215 211 211 219 225 233 241 225 235 236 233 241 245 248 249
199 196 197 206 208 218 222 223 224 224 225 228 225 230 232 243 238 241 235 230 230 232 229 219 218 220 214 217 212 214 218 224 232 229 230 239 235 229 240 237 244 248
199 202 206 209 211 213 219 226 233 229 227 233 237 233 232 240 246 249 245 240 230 230 225 222 219 222 221 227 218 224 230 231 234 214 220 234 237 218 228 221 230 240
204 200 202 209 215 212 216 226 231 231 232 236 237 237 236 239 242 241 241 239 229 224 224 221 219 223 222 226 219 218 225 223 226 200 209 220 235 223 230 234 242 250
204 200 207 210 219 221 228 234 235 232 230 234 237 235 235 242 242 239 235 229 223 218 216 218 218 226 223 220 216 223 228 225 233 219 214 227 229 246 245 240 241 247
204 201 200 199 210 226 234 251 277 291 290 269 253 253 248 242 245 241 228 211 204 211 213 214 218 225 235 220 227 238 239 214 210 209 218 232 225 235 242 246 244 244
200 196 173 173 200 221 357 307 301 279 244 194 11 298 285 253 234 230 222 214 219 223 222 229 227 230 230 219 223 221 228 238 235 234 235 238 236 240 247 250 253 249
181 148 189 101 68 34 351 331 353 305 348 341 197 222 247 305 296 258 245 232 231 238 231 235 239 237 233 218 223 229 236 240 244 241 237 236 238 244 247 245 247 253
55 32 30 46 91 125 176 259 266 273 233 244 262 269 275 254 255 270 258 245 238 238 239 233 233 231 241 249 245 236 233 235 237 237 235 235 237 239 242 244 246 245
122 135 145 175 184 182 191 201 230 245 250 260 260 268 272 266 256 253 237 239 237 243 243 246 248 251 250 250 249 247 245 245 242 237 237 238 240 242 243 243 245 246
160 189 195 188 207 210 201 199 210 225 237 253 253 257 258 270 271 270 268 264 266 271 274 275 271 259 253 253 254 252 248 242 242 245 249 247 244 243 244 246 247 247
345 319 333 257 237 233 241 246 249 256 255 259 263 267 270 269 279 285 288 285 280 273 269 264 261 263 262 262 260 253 245 242 239 243 244 243 244 243 243 246 248 248
300 299 274 253 239 235 276 259 266 278 283 281 287 281 269 266 268 269 273 285 284 277 275 273 269 263 255 252 252 251 237 243 243 244 245 251 253 253 249 247 246 245
244 248 260 253 251 238 258 249 241 241 260 281 287 288 294 304 311 310 306 292 295 295 291 282 273 271 264 267 258 256 256 250 247 245 246 247 251 254 252 248 245 242
260 258 262 316 314 282 271 292 318 339 344 329 317 302 285 276 266 268 264 259 261 270 281 281 276 272 270 266 266 266 265 263 255 255 246 245 245 246 250 250 249 245
278 311 342 326 342 348 356 0 10 10 357 342 331 331 322 324 326 316 315 312 304 296 287 278 273 272 272 273 271 270 268 265 262 259 259 253 247 245 246 246 247 248
304 354 12 20 15 12 11 10 6 352 341 335 323 308 319 326 308 312 305 300 292 287 282 278 279 276 275 275 273 271 270 267 268 264 260 259 255 252 249 246 244 246
44 40 29 16 11 8 5 359 349 337 320 313 314 324 322 312 306 298 293 287 281 278 278 280 279 281 278 277 276 274 271 270 264 260 257 256 255 253 250 245 237 235
30 27 22 12 8 2 355 346 335 323 327 320 318 311 307 299 298 296 290 286 285 282 280 278 273 274 273 274 275 275 275 273 268 263 260 257 256 254 252 249 242 236
33 27 9 354 341 340 340 331 331 326 320 314 310 310 303 301 298 291 283 279 274 273 274 273 271 271 272 274 274 274 274 273 267 262 259 256 255 256 254 251 245 241
26 14 344 332 325 336 331 326 325 321 318 315 311 301 298 293 283 275 273 273 275 275 275 274 275 274 274 273 273 275 279 275 271 265 257 254 253 253 254 251 249 243
339 342 341 340 346 338 322 310 302 295 289 285 281 284 281 278 277 277 275 273 274 274 270 275 276 273 273 275 277 278 278 280 278 275 267 259 258 254 252 252 250 249
332 341 337 329 317 299 291 286 279 273 271 274 272 274 276 277 280 280 280 276 271 269 273 274 278 278 278 279 281 280 285 288 274 263 267 264 267 269 266 258 256 254
3 2 338 311 293 285 286 278 272 278 278 279 280 274 279 279 281 282 280 279 277 276 275 274 276 279 282 284 286 295 296 277 259 264 264 268 259 261 264 255 248 250